ONEWEB-0020

operational
NORAD ID: 45133 Int'l Des: 2020-008 Owner: ONEWEB Country: UK Constellation: oneweb
LEOCIRCULARPOLARONEWEB_TYPE

About ONEWEB-0020

Description loading...

Live Position

Loading 3D Globe...

Upcoming Passes

Altitude History

Altitude vs Time

uPlot chart will show altitude changes over time

Two-Line Element Set

1 45133U 20008C 25251.82150509 -.00000613 00000-0 -17938-2 0 9993
2 45133 87.8744 92.3719 0001769 91.3336 268.7994 13.10371997271494
Epoch: Sep 8, 2025 • Age: 14 hours

Current Status

Altitude 1241.0 km
Velocity 7.23 km/s
Sub-Earth Point -47.28°S, 50.8°W
Launch Date Oct 20, 2024
Age 0.8 years
Type internet

Technical Details

Classification Payload
Mass 148.00 kg
Dry Mass 140.00 kg
Total Mass 148.00 kg
Length 1.30 m
Diameter 1.00 m
Span 5.00 m
Shape Trapezoid+2 pan
Manufacturer ONEWUS
Bus Type ARROW
Phase Status In Orbit
Owner/State ONEWEB/UK

Large Constellations

Loading constellations...